DAL508 KBOS-KATL

Flight info

Callsign DAL508
Flight time 2h 8m
Altitude 40000
Route BLZZR6 BLZZR BAF Q448 PTW J48 MOL FLASK OZZZI2
Aircraft A333/H-SDE3GHIJ2J3J5M1RVWXY/LB2D1

Departure

Time 2026-05-05 22:44
Airport Boston Logan International Airport (KBOS)

Arrival

Time 2026-05-06 00:52
Airport Hartsfield Jackson Atlanta International Airport (KATL)
Time Latitude Longitude Altitude Speed Heading
2026-05-05 22:12 42.36041 -71.01686 31 ft 0 kts 289°
2026-05-05 22:28 42.36038 -71.01674 30 ft 2 kts 291°
2026-05-05 22:28 42.36032 -71.01653 32 ft 2 kts 295°
2026-05-05 22:29 42.36025 -71.01634 31 ft 2 kts 302°
2026-05-05 22:29 42.36015 -71.01616 30 ft 2 kts 315°
2026-05-05 22:29 42.36002 -71.01602 30 ft 2 kts 343°
2026-05-05 22:29 42.35986 -71.01600 32 ft 2 kts 15°
2026-05-05 22:30 42.35981 -71.01602 32 ft 0 kts 19°
2026-05-05 22:31 42.35994 -71.01596 31 ft 4 kts 19°
2026-05-05 22:31 42.36031 -71.01579 31 ft 8 kts 19°
2026-05-05 22:31 42.36089 -71.01552 32 ft 10 kts 19°
2026-05-05 22:32 42.36162 -71.01515 31 ft 13 kts 20°
2026-05-05 22:32 42.36260 -71.01467 27 ft 18 kts 20°
2026-05-05 22:32 42.36387 -71.01405 27 ft 20 kts 20°
2026-05-05 22:32 42.36522 -71.01331 28 ft 22 kts 25°
2026-05-05 22:33 42.36635 -71.01270 30 ft 13 kts 15°
2026-05-05 22:33 42.36726 -71.01244 30 ft 14 kts 359°
2026-05-05 22:33 42.36819 -71.01276 28 ft 10 kts
2026-05-05 22:33 42.36851 -71.01254 28 ft 4 kts 30°
2026-05-05 22:34 42.36876 -71.01229 28 ft 5 kts 40°
2026-05-05 22:34 42.36908 -71.01194 28 ft 7 kts 39°
2026-05-05 22:34 42.36946 -71.01152 29 ft 8 kts 37°
2026-05-05 22:34 42.36996 -71.01107 28 ft 10 kts 29°
2026-05-05 22:35 42.37069 -71.01056 32 ft 14 kts 26°
2026-05-05 22:35 42.37162 -71.00994 29 ft 16 kts 26°
2026-05-05 22:35 42.37266 -71.00926 30 ft 18 kts 24°
2026-05-05 22:35 42.37390 -71.00864 28 ft 20 kts 20°
2026-05-05 22:36 42.37525 -71.00797 28 ft 21 kts 20°
2026-05-05 22:36 42.37659 -71.00732 30 ft 11 kts 20°
2026-05-05 22:36 42.37708 -71.00708 32 ft 6 kts 19°
2026-05-05 22:36 42.37745 -71.00691 33 ft 6 kts 19°
2026-05-05 22:37 42.37760 -71.00683 33 ft 0 kts 19°
2026-05-05 22:38 42.37771 -71.00678 33 ft 3 kts 19°
2026-05-05 22:39 42.37803 -71.00661 33 ft 7 kts 27°
2026-05-05 22:39 42.37814 -71.00649 33 ft 0 kts 39°
2026-05-05 22:39 42.37815 -71.00648 33 ft 1 kts 40°
2026-05-05 22:39 42.37816 -71.00647 33 ft 0 kts 41°
2026-05-05 22:41 42.37819 -71.00642 33 ft 2 kts 46°
2026-05-05 22:41 42.37830 -71.00618 32 ft 4 kts 66°
2026-05-05 22:41 42.37833 -71.00581 32 ft 0 kts 93°
2026-05-05 22:42 42.37833 -71.00579 32 ft 1 kts 94°
2026-05-05 22:42 42.37827 -71.00541 31 ft 8 kts 104°
2026-05-05 22:42 42.37808 -71.00499 30 ft 3 kts 153°
2026-05-05 22:42 42.37773 -71.00488 29 ft 7 kts 179°
2026-05-05 22:43 42.37744 -71.00499 30 ft 4 kts 203°
2026-05-05 22:43 42.37716 -71.00511 30 ft 5 kts 200°
2026-05-05 22:43 42.37611 -71.00563 31 ft 46 kts 200°
2026-05-05 22:43 42.37060 -71.00824 28 ft 119 kts 199°
2026-05-05 22:44 42.36157 -71.01218 581 ft 138 kts 194°
2026-05-05 22:44 42.35123 -71.01548 1022 ft 167 kts 188°
2026-05-05 22:44 42.33863 -71.01219 1153 ft 213 kts 153°
2026-05-05 22:44 42.32661 -70.99674 1233 ft 260 kts 135°
2026-05-05 22:45 42.31599 -70.97603 1756 ft 280 kts 122°
2026-05-05 22:45 42.31225 -70.94956 2630 ft 300 kts 91°
2026-05-05 22:45 42.31551 -70.92116 3378 ft 309 kts 81°
2026-05-05 22:45 42.32021 -70.89270 4230 ft 311 kts 79°
2026-05-05 22:46 42.32484 -70.86411 5058 ft 313 kts 80°
2026-05-05 22:46 42.32929 -70.83511 5911 ft 317 kts 81°
2026-05-05 22:46 42.33130 -70.80557 6737 ft 315 kts 99°
2026-05-05 22:46 42.32511 -70.77783 7617 ft 305 kts 120°
2026-05-05 22:47 42.31525 -70.75252 8568 ft 303 kts 127°
2026-05-05 22:47 42.30178 -70.73106 9417 ft 297 kts 147°
2026-05-05 22:47 42.28387 -70.71834 10194 ft 289 kts 170°
2026-05-05 22:47 42.26432 -70.71592 10828 ft 286 kts 189°
2026-05-05 22:48 42.24455 -70.71963 11610 ft 288 kts 194°
2026-05-05 22:48 42.22469 -70.72473 12411 ft 291 kts 198°
2026-05-05 22:48 42.20588 -70.73447 13210 ft 289 kts 214°
2026-05-05 22:48 42.19080 -70.75198 13982 ft 287 kts 233°
2026-05-05 22:49 42.18122 -70.77584 14508 ft 298 kts 250°
2026-05-05 22:49 42.17626 -70.80387 14819 ft 316 kts 257°
2026-05-05 22:49 42.17244 -70.83354 15348 ft 325 kts 258°
2026-05-05 22:49 42.16860 -70.86387 15974 ft 331 kts 258°
2026-05-05 22:50 42.16461 -70.89468 16677 ft 335 kts 257°
2026-05-05 22:50 42.16088 -70.92581 17389 ft 338 kts 261°
2026-05-05 22:50 42.16005 -70.95778 18015 ft 345 kts 269°
2026-05-05 22:50 42.16186 -70.98976 18586 ft 349 kts 272°
2026-05-05 22:51 42.16431 -71.02247 19161 ft 352 kts 272°
2026-05-05 22:51 42.16684 -71.05553 19731 ft 355 kts 272°
2026-05-05 22:51 42.16933 -71.08882 20294 ft 358 kts 272°
2026-05-05 22:51 42.17182 -71.12245 20844 ft 361 kts 272°
2026-05-05 22:52 42.17429 -71.15635 21392 ft 364 kts 272°
2026-05-05 22:52 42.17672 -71.19001 21914 ft 367 kts 272°
2026-05-05 22:52 42.17920 -71.22450 22438 ft 370 kts 273°
2026-05-05 22:52 42.18168 -71.25927 22957 ft 373 kts 273°
2026-05-05 22:53 42.18417 -71.29428 23447 ft 376 kts 273°
2026-05-05 22:53 42.18666 -71.32958 23876 ft 379 kts 273°
2026-05-05 22:53 42.18917 -71.36520 24283 ft 382 kts 273°
2026-05-05 22:53 42.19167 -71.40091 24696 ft 384 kts 273°
2026-05-05 22:54 42.19415 -71.43644 25107 ft 386 kts 273°
2026-05-05 22:54 42.19666 -71.47258 25523 ft 388 kts 273°
2026-05-05 22:54 42.19917 -71.50896 25923 ft 390 kts 273°
2026-05-05 22:54 42.20168 -71.54549 26322 ft 393 kts 273°
2026-05-05 22:55 42.20420 -71.58223 26747 ft 394 kts 273°
2026-05-05 22:55 42.20672 -71.61917 27151 ft 395 kts 273°
2026-05-05 22:55 42.20923 -71.65629 27510 ft 398 kts 273°
2026-05-05 22:55 42.21175 -71.69365 27853 ft 401 kts 273°
2026-05-05 22:56 42.21426 -71.73126 28201 ft 404 kts 272°
2026-05-05 22:56 42.21523 -71.76924 28576 ft 406 kts 267°
2026-05-05 22:56 42.21407 -71.80692 28889 ft 408 kts 265°
2026-05-05 22:56 42.21202 -71.84524 29214 ft 411 kts 264°
2026-05-05 22:57 42.20957 -71.88387 29519 ft 413 kts 264°
2026-05-05 22:57 42.20705 -71.92272 29868 ft 415 kts 264°
2026-05-05 22:57 42.20460 -71.96163 30182 ft 417 kts 264°
2026-05-05 22:57 42.20223 -72.00069 30471 ft 418 kts 265°
2026-05-05 22:58 42.19994 -72.03996 30746 ft 420 kts 265°
2026-05-05 22:58 42.19769 -72.07932 31020 ft 421 kts 265°
2026-05-05 22:58 42.19548 -72.11833 31280 ft 423 kts 265°
2026-05-05 22:58 42.19324 -72.15795 31546 ft 424 kts 265°
2026-05-05 22:59 42.19097 -72.19768 31781 ft 426 kts 265°
2026-05-05 22:59 42.18867 -72.23763 32028 ft 428 kts 265°
2026-05-05 22:59 42.18635 -72.27766 32449 ft 425 kts 266°
2026-05-05 22:59 42.18405 -72.31708 33077 ft 418 kts 266°
2026-05-05 23:00 42.17949 -72.39490 33807 ft 415 kts 266°
2026-05-05 23:00 42.17722 -72.43386 34055 ft 416 kts 266°
2026-05-05 23:00 42.17497 -72.47222 34313 ft 415 kts 266°
2026-05-05 23:01 42.17267 -72.51106 34582 ft 415 kts 266°
2026-05-05 23:01 42.17035 -72.54982 34845 ft 414 kts 265°
2026-05-05 23:01 42.16802 -72.58856 35108 ft 414 kts 265°
2026-05-05 23:01 42.16567 -72.62720 35496 ft 410 kts 265°
2026-05-05 23:02 42.16179 -72.66496 36024 ft 404 kts 259°
2026-05-05 23:02 42.15462 -72.70171 36265 ft 406 kts 252°
2026-05-05 23:02 42.14368 -72.73665 36445 ft 410 kts 244°
2026-05-05 23:02 42.12866 -72.76961 36639 ft 414 kts 237°
2026-05-05 23:03 42.11162 -72.80096 36826 ft 415 kts 235°
2026-05-05 23:03 42.09404 -72.83134 37040 ft 416 kts 234°
2026-05-05 23:03 42.07596 -72.86173 37318 ft 414 kts 233°
2026-05-05 23:03 42.05789 -72.89187 37577 ft 413 kts 233°
2026-05-05 23:04 42.03990 -72.92198 37857 ft 412 kts 233°
2026-05-05 23:04 42.02202 -72.95209 38110 ft 411 kts 233°
2026-05-05 23:04 42.00425 -72.98216 38212 ft 413 kts 232°
2026-05-05 23:04 41.98638 -73.01250 38364 ft 414 kts 232°
2026-05-05 23:05 41.96792 -73.04223 38561 ft 415 kts 228°
2026-05-05 23:05 41.94697 -73.06911 38728 ft 416 kts 221°
2026-05-05 23:05 41.92391 -73.09212 38846 ft 420 kts 217°
2026-05-05 23:05 41.89953 -73.11398 38953 ft 422 kts 215°
2026-05-05 23:06 41.87471 -73.13511 39096 ft 422 kts 214°
2026-05-05 23:06 41.84972 -73.15587 39247 ft 423 kts 214°
2026-05-05 23:06 41.82464 -73.17655 39370 ft 423 kts 214°
2026-05-05 23:06 41.79959 -73.19724 39505 ft 423 kts 214°
2026-05-05 23:07 41.77451 -73.21803 39624 ft 423 kts 214°
2026-05-05 23:07 41.74943 -73.23891 39731 ft 423 kts 215°
2026-05-05 23:07 41.69919 -73.28086 39836 ft 428 kts 215°
2026-05-05 23:08 41.65151 -73.32807 39833 ft 428 kts 226°
2026-05-05 23:08 41.61060 -73.38649 39832 ft 433 kts 230°
2026-05-05 23:09 41.57082 -73.44765 39836 ft 439 kts 231°
2026-05-05 23:09 41.53062 -73.50999 39829 ft 445 kts 230°
2026-05-05 23:10 41.49005 -73.57240 39815 ft 449 kts 230°
2026-05-05 23:10 41.44891 -73.63527 39854 ft 449 kts 230°
2026-05-05 23:11 41.40769 -73.69808 39844 ft 451 kts 230°
2026-05-05 23:11 41.36631 -73.76103 39840 ft 451 kts 230°
2026-05-05 23:12 41.32473 -73.82377 39820 ft 452 kts 230°
2026-05-05 23:12 41.28290 -73.88556 39825 ft 452 kts 229°
2026-05-05 23:13 41.24067 -73.94759 39823 ft 451 kts 229°
2026-05-05 23:13 41.19855 -74.00943 39839 ft 452 kts 230°
2026-05-05 23:14 41.16337 -74.06107 39823 ft 453 kts 230°
2026-05-05 23:14 41.11511 -74.13435 39831 ft 452 kts 232°
2026-05-05 23:15 41.08206 -74.18812 39837 ft 452 kts 233°
2026-05-05 23:15 41.04252 -74.25300 39845 ft 452 kts 232°
2026-05-05 23:16 41.00280 -74.31761 39849 ft 453 kts 232°
2026-05-05 23:16 40.96283 -74.38211 39850 ft 454 kts 233°
2026-05-05 23:17 40.92261 -74.44677 39828 ft 455 kts 233°
2026-05-05 23:17 40.88229 -74.51148 39846 ft 455 kts 233°
2026-05-05 23:18 40.84221 -74.57565 39845 ft 455 kts 233°
2026-05-05 23:18 40.80186 -74.64013 39845 ft 455 kts 233°
2026-05-05 23:19 40.76140 -74.70468 39838 ft 455 kts 233°
2026-05-05 23:19 40.72112 -74.76881 39839 ft 456 kts 233°
2026-05-05 23:20 40.68059 -74.83312 39839 ft 456 kts 232°
2026-05-05 23:20 40.64037 -74.89778 39839 ft 455 kts 233°
2026-05-05 23:21 40.60051 -74.96272 39839 ft 455 kts 233°
2026-05-05 23:21 40.56090 -75.02718 39847 ft 456 kts 233°
2026-05-05 23:22 40.52089 -75.09214 39859 ft 456 kts 234°
2026-05-05 23:22 40.48093 -75.15689 39878 ft 456 kts 234°
2026-05-05 23:23 40.44108 -75.22133 39888 ft 456 kts 234°
2026-05-05 23:23 40.40102 -75.28596 39858 ft 457 kts 234°
2026-05-05 23:24 40.36076 -75.35080 39889 ft 458 kts 234°
2026-05-05 23:24 40.32046 -75.41555 39885 ft 458 kts 234°
2026-05-05 23:25 40.28044 -75.47971 39888 ft 456 kts 235°
2026-05-05 23:25 40.24017 -75.54414 39888 ft 456 kts 235°
2026-05-05 23:26 40.20010 -75.60815 39885 ft 457 kts 235°
2026-05-05 23:26 40.15975 -75.67245 39886 ft 457 kts 234°
2026-05-05 23:27 40.11928 -75.73679 39881 ft 457 kts 235°
2026-05-05 23:27 40.07910 -75.80055 39873 ft 456 kts 235°
2026-05-05 23:28 40.03877 -75.86440 39867 ft 456 kts 235°
2026-05-05 23:28 39.99826 -75.92843 39888 ft 456 kts 235°
2026-05-05 23:29 39.95779 -75.99226 39857 ft 457 kts 235°
2026-05-05 23:29 39.91757 -76.05556 39857 ft 457 kts 235°
2026-05-05 23:30 39.87690 -76.11942 39853 ft 456 kts 235°
2026-05-05 23:30 39.83633 -76.18300 39853 ft 456 kts 235°
2026-05-05 23:31 39.79575 -76.24648 39852 ft 456 kts 235°
2026-05-05 23:31 39.75529 -76.30963 39851 ft 456 kts 235°
2026-05-05 23:32 39.71454 -76.37310 39851 ft 456 kts 235°
2026-05-05 23:32 39.67377 -76.43648 39843 ft 457 kts 235°
2026-05-05 23:33 39.63323 -76.49938 39858 ft 457 kts 235°
2026-05-05 23:33 39.59247 -76.56248 39852 ft 455 kts 236°
2026-05-05 23:34 39.55172 -76.62545 39870 ft 455 kts 236°
2026-05-05 23:34 39.51088 -76.68843 39872 ft 455 kts 236°
2026-05-05 23:35 39.47035 -76.75082 39861 ft 456 kts 236°
2026-05-05 23:35 39.42939 -76.81373 39880 ft 457 kts 236°
2026-05-05 23:36 39.38832 -76.87668 39882 ft 456 kts 236°
2026-05-05 23:36 39.34768 -76.93884 39901 ft 455 kts 236°
2026-05-05 23:37 39.30670 -77.00141 39903 ft 455 kts 236°
2026-05-05 23:37 39.26567 -77.06397 39906 ft 457 kts 236°
2026-05-05 23:38 39.22456 -77.12650 39905 ft 456 kts 236°
2026-05-05 23:38 39.18363 -77.18862 39906 ft 457 kts 236°
2026-05-05 23:39 39.14243 -77.25102 39906 ft 455 kts 236°
2026-05-05 23:39 39.10141 -77.31305 39878 ft 455 kts 236°
2026-05-05 23:40 39.06027 -77.37515 39883 ft 456 kts 236°
2026-05-05 23:40 39.01928 -77.43690 39888 ft 456 kts 236°
2026-05-05 23:41 38.97799 -77.49895 39889 ft 456 kts 236°
2026-05-05 23:41 38.93665 -77.56098 39889 ft 456 kts 236°
2026-05-05 23:42 38.89558 -77.62246 39881 ft 455 kts 237°
2026-05-05 23:42 38.85433 -77.68410 39895 ft 455 kts 237°
2026-05-05 23:43 38.81296 -77.74582 39901 ft 455 kts 237°
2026-05-05 23:43 38.77198 -77.80682 39897 ft 454 kts 237°
2026-05-05 23:44 38.73066 -77.86821 39888 ft 455 kts 237°
2026-05-05 23:44 38.68924 -77.92965 39893 ft 456 kts 237°
2026-05-05 23:45 38.64779 -77.99096 39913 ft 453 kts 237°
2026-05-05 23:45 38.60642 -78.05207 39910 ft 454 kts 237°
2026-05-05 23:46 38.56530 -78.11270 39892 ft 453 kts 237°
2026-05-05 23:46 38.52386 -78.17368 39902 ft 454 kts 237°
2026-05-05 23:47 38.48238 -78.23460 39900 ft 454 kts 237°
2026-05-05 23:47 38.44085 -78.29546 39901 ft 454 kts 237°
2026-05-05 23:48 38.39961 -78.35581 39909 ft 454 kts 237°
2026-05-05 23:48 38.35804 -78.41648 39915 ft 454 kts 237°
2026-05-05 23:49 38.31637 -78.47721 39886 ft 455 kts 237°
2026-05-05 23:49 38.27455 -78.53805 39924 ft 457 kts 237°
2026-05-05 23:50 38.23289 -78.59851 39922 ft 456 kts 237°
2026-05-05 23:50 38.19098 -78.65922 39918 ft 457 kts 237°
2026-05-05 23:51 38.14914 -78.71970 39913 ft 452 kts 237°
2026-05-05 23:51 38.10781 -78.77946 39921 ft 453 kts 237°
2026-05-05 23:52 38.06606 -78.83961 39932 ft 454 kts 237°
2026-05-05 23:52 38.02418 -78.89983 39939 ft 454 kts 237°
2026-05-05 23:53 37.98228 -78.95996 39919 ft 455 kts 237°
2026-05-05 23:53 37.94057 -79.01973 39908 ft 456 kts 236°
2026-05-05 23:54 37.89873 -79.07954 39940 ft 451 kts 237°
2026-05-05 23:54 37.85704 -79.13906 39962 ft 450 kts 237°
2026-05-05 23:55 37.81546 -79.19824 39975 ft 449 kts 237°
2026-05-05 23:55 37.77392 -79.25740 39971 ft 450 kts 237°
2026-05-05 23:56 37.73235 -79.31643 40004 ft 450 kts 237°
2026-05-05 23:56 37.69079 -79.37535 39982 ft 452 kts 237°
2026-05-05 23:57 37.64890 -79.43460 39976 ft 451 kts 237°
2026-05-05 23:57 37.60718 -79.49347 39977 ft 450 kts 237°
2026-05-05 23:58 37.56572 -79.55192 39954 ft 450 kts 237°
2026-05-05 23:58 37.52390 -79.61074 39939 ft 449 kts 237°
2026-05-05 23:59 37.48212 -79.66940 39936 ft 450 kts 237°
2026-05-05 23:59 37.44055 -79.72767 39940 ft 445 kts 237°
2026-05-06 00:00 37.39942 -79.78532 39969 ft 447 kts 237°
2026-05-06 00:00 37.35771 -79.84358 39969 ft 448 kts 237°
2026-05-06 00:01 37.31593 -79.90179 39981 ft 448 kts 237°
2026-05-06 00:01 37.27404 -79.96010 39965 ft 450 kts 237°
2026-05-06 00:02 37.23229 -80.01811 39970 ft 450 kts 237°
2026-05-06 00:02 37.19028 -80.07637 39987 ft 450 kts 237°
2026-05-06 00:03 37.14825 -80.13454 39997 ft 450 kts 237°
2026-05-06 00:03 37.10619 -80.19260 40011 ft 448 kts 237°
2026-05-06 00:04 37.06441 -80.25025 39984 ft 449 kts 237°
2026-05-06 00:04 37.02912 -80.29886 40006 ft 450 kts 237°
2026-05-06 00:05 36.96388 -80.38380 39990 ft 453 kts 234°
2026-05-06 00:06 36.91974 -80.44016 39977 ft 454 kts 234°
2026-05-06 00:06 36.87564 -80.49646 39964 ft 454 kts 234°
2026-05-06 00:07 36.83140 -80.55286 39966 ft 453 kts 234°
2026-05-06 00:07 36.78753 -80.60869 39965 ft 453 kts 234°
2026-05-06 00:08 36.74320 -80.66501 40025 ft 453 kts 234°
2026-05-06 00:08 36.69902 -80.72104 40035 ft 453 kts 234°
2026-05-06 00:09 36.65476 -80.77709 40026 ft 453 kts 234°
2026-05-06 00:09 36.61068 -80.83281 40009 ft 455 kts 234°
2026-05-06 00:10 36.56612 -80.88905 40003 ft 456 kts 234°
2026-05-06 00:10 36.52165 -80.94501 39969 ft 453 kts 234°
2026-05-06 00:11 36.47734 -81.00072 39987 ft 449 kts 234°
2026-05-06 00:11 36.43442 -81.05457 40011 ft 433 kts 234°
2026-05-06 00:12 36.39203 -81.10785 40027 ft 435 kts 234°
2026-05-06 00:12 36.34906 -81.16170 40050 ft 442 kts 234°
2026-05-06 00:13 36.30529 -81.21642 40034 ft 450 kts 234°
2026-05-06 00:13 36.26119 -81.27148 40029 ft 455 kts 233°
2026-05-06 00:14 36.21658 -81.32701 40028 ft 453 kts 233°
2026-05-06 00:14 36.17205 -81.38244 39993 ft 453 kts 234°
2026-05-06 00:15 36.12773 -81.43754 39983 ft 453 kts 233°
2026-05-06 00:15 36.08311 -81.49286 39961 ft 453 kts 233°
2026-05-06 00:16 36.03850 -81.54817 39957 ft 454 kts 234°
2026-05-06 00:16 35.99409 -81.60306 39957 ft 454 kts 233°
2026-05-06 00:17 35.94938 -81.65824 39942 ft 454 kts 233°
2026-05-06 00:17 35.90479 -81.71321 39969 ft 453 kts 233°
2026-05-06 00:18 35.86029 -81.76798 39966 ft 453 kts 233°
2026-05-06 00:18 35.81563 -81.82283 40023 ft 453 kts 233°
2026-05-06 00:19 35.77068 -81.87747 40012 ft 454 kts 233°
2026-05-06 00:19 35.72540 -81.93168 39999 ft 454 kts 233°
2026-05-06 00:20 35.68031 -81.98559 39997 ft 454 kts 233°
2026-05-06 00:20 35.63485 -82.03986 40001 ft 454 kts 233°
2026-05-06 00:21 35.58949 -82.09394 40002 ft 454 kts 233°
2026-05-06 00:21 35.54405 -82.14801 39993 ft 455 kts 232°
2026-05-06 00:22 35.49866 -82.20185 39987 ft 455 kts 232°
2026-05-06 00:22 35.45316 -82.25587 39996 ft 455 kts 233°
2026-05-06 00:23 35.40790 -82.31044 40001 ft 455 kts 234°
2026-05-06 00:23 35.36391 -82.36514 39997 ft 453 kts 234°
2026-05-06 00:24 35.31962 -82.42018 39995 ft 452 kts 234°
2026-05-06 00:24 35.27547 -82.47492 40001 ft 452 kts 234°
2026-05-06 00:25 35.23118 -82.52977 40038 ft 453 kts 233°
2026-05-06 00:25 35.18673 -82.58464 39966 ft 452 kts 234°
2026-05-06 00:26 35.14296 -82.63788 39707 ft 430 kts 233°
2026-05-06 00:26 35.12214 -82.66257 39471 ft 415 kts 234°
2026-05-06 00:26 35.10175 -82.68675 39127 ft 402 kts 234°
2026-05-06 00:26 35.08184 -82.71048 38670 ft 399 kts 236°
2026-05-06 00:27 35.06193 -82.73419 38211 ft 397 kts 235°
2026-05-06 00:27 35.04218 -82.75766 37733 ft 396 kts 235°
2026-05-06 00:27 35.02245 -82.78111 37190 ft 396 kts 235°
2026-05-06 00:27 35.00270 -82.80454 36672 ft 396 kts 234°
2026-05-06 00:28 34.98313 -82.82772 36154 ft 397 kts 234°
2026-05-06 00:28 34.96319 -82.85129 35593 ft 399 kts 234°
2026-05-06 00:28 34.94321 -82.87488 35058 ft 399 kts 234°
2026-05-06 00:28 34.92306 -82.89840 34515 ft 402 kts 234°
2026-05-06 00:29 34.90274 -82.92194 33962 ft 403 kts 233°
2026-05-06 00:29 34.88237 -82.94550 33331 ft 404 kts 233°
2026-05-06 00:29 34.86214 -82.96889 32691 ft 406 kts 233°
2026-05-06 00:29 34.84159 -82.99263 32053 ft 408 kts 232°
2026-05-06 00:30 34.82090 -83.01651 31413 ft 409 kts 232°
2026-05-06 00:30 34.80016 -83.04042 30802 ft 410 kts 231°
2026-05-06 00:30 34.77934 -83.06442 30149 ft 412 kts 231°
2026-05-06 00:30 34.75852 -83.08840 29542 ft 411 kts 231°
2026-05-06 00:31 34.73803 -83.11197 28971 ft 409 kts 230°
2026-05-06 00:31 34.71742 -83.13566 28449 ft 406 kts 230°
2026-05-06 00:31 34.69696 -83.15917 27925 ft 403 kts 230°
2026-05-06 00:31 34.67666 -83.18251 27466 ft 399 kts 230°
2026-05-06 00:32 34.65650 -83.20565 26974 ft 396 kts 229°
2026-05-06 00:32 34.63653 -83.22860 26470 ft 394 kts 229°
2026-05-06 00:32 34.61671 -83.25136 25974 ft 391 kts 229°
2026-05-06 00:32 34.59697 -83.27402 25490 ft 389 kts 229°
2026-05-06 00:33 34.57736 -83.29651 25017 ft 387 kts 228°
2026-05-06 00:33 34.55781 -83.31892 24534 ft 384 kts 228°
2026-05-06 00:33 34.53843 -83.34122 24018 ft 383 kts 228°
2026-05-06 00:33 34.51931 -83.36322 23527 ft 382 kts 227°
2026-05-06 00:34 34.50011 -83.38529 22998 ft 379 kts 227°
2026-05-06 00:34 34.48103 -83.40721 22487 ft 376 kts 227°
2026-05-06 00:34 34.46216 -83.42887 21992 ft 372 kts 227°
2026-05-06 00:34 34.44336 -83.45044 21474 ft 369 kts 227°
2026-05-06 00:35 34.42479 -83.47173 20990 ft 366 kts 227°
2026-05-06 00:35 34.40628 -83.49295 20533 ft 363 kts 226°
2026-05-06 00:35 34.38825 -83.51361 20062 ft 361 kts 226°
2026-05-06 00:35 34.37007 -83.53442 19595 ft 358 kts 226°
2026-05-06 00:36 34.35200 -83.55509 19176 ft 354 kts 226°
2026-05-06 00:36 34.33419 -83.57546 18729 ft 351 kts 226°
2026-05-06 00:36 34.31645 -83.59573 18256 ft 349 kts 226°
2026-05-06 00:36 34.29902 -83.61564 17678 ft 348 kts 226°
2026-05-06 00:37 34.28116 -83.63539 17156 ft 346 kts 225°
2026-05-06 00:37 34.26316 -83.65466 16647 ft 344 kts 225°
2026-05-06 00:37 34.24527 -83.67368 16182 ft 341 kts 225°
2026-05-06 00:37 34.22751 -83.69256 15710 ft 337 kts 225°
2026-05-06 00:38 34.21012 -83.71105 15259 ft 334 kts 225°
2026-05-06 00:38 34.19274 -83.72952 14801 ft 331 kts 225°
2026-05-06 00:38 34.17553 -83.74781 14348 ft 328 kts 225°
2026-05-06 00:38 34.15845 -83.76595 13896 ft 326 kts 225°
2026-05-06 00:39 34.14148 -83.78397 13406 ft 323 kts 225°
2026-05-06 00:39 34.12469 -83.80180 12919 ft 320 kts 225°
2026-05-06 00:39 34.10821 -83.81928 12676 ft 310 kts 225°
2026-05-06 00:39 34.09237 -83.83613 12504 ft 297 kts 225°
2026-05-06 00:40 34.07717 -83.85246 12302 ft 287 kts 226°
2026-05-06 00:40 34.06239 -83.86838 11992 ft 282 kts 226°
2026-05-06 00:40 34.04782 -83.88411 11593 ft 281 kts 225°
2026-05-06 00:40 34.03345 -83.89960 11222 ft 279 kts 225°
2026-05-06 00:41 34.01899 -83.91514 10878 ft 276 kts 225°
2026-05-06 00:41 34.00475 -83.93041 10564 ft 272 kts 224°
2026-05-06 00:41 33.99061 -83.94555 10208 ft 271 kts 224°
2026-05-06 00:41 33.97539 -83.95896 9870 ft 273 kts 211°
2026-05-06 00:42 33.95717 -83.96595 9464 ft 281 kts 191°
2026-05-06 00:42 33.93749 -83.96660 9053 ft 284 kts 182°
2026-05-06 00:42 33.91782 -83.96563 8675 ft 282 kts 181°
2026-05-06 00:42 33.89829 -83.96451 8327 ft 279 kts 181°
2026-05-06 00:43 33.87906 -83.96349 8001 ft 275 kts 181°
2026-05-06 00:43 33.86023 -83.96257 7634 ft 273 kts 181°
2026-05-06 00:43 33.84124 -83.96171 7284 ft 271 kts 180°
2026-05-06 00:43 33.82250 -83.96089 6948 ft 268 kts 180°
2026-05-06 00:44 33.80396 -83.96009 6602 ft 265 kts 180°
2026-05-06 00:44 33.78553 -83.95932 6192 ft 265 kts 180°
2026-05-06 00:44 33.76714 -83.95864 5829 ft 263 kts 181°
2026-05-06 00:44 33.74920 -83.96125 5425 ft 258 kts 196°
2026-05-06 00:45 33.73240 -83.96837 5110 ft 254 kts 201°
2026-05-06 00:45 33.71630 -83.97633 4775 ft 253 kts 201°
2026-05-06 00:45 33.70019 -83.98446 4424 ft 250 kts 201°
2026-05-06 00:45 33.68410 -83.99254 4094 ft 249 kts 201°
2026-05-06 00:46 33.66867 -84.00179 3994 ft 250 kts 212°
2026-05-06 00:46 33.65607 -84.01626 3999 ft 254 kts 232°
2026-05-06 00:46 33.64911 -84.03583 3998 ft 260 kts 255°
2026-05-06 00:46 33.64802 -84.05744 4003 ft 258 kts 266°
2026-05-06 00:47 33.64881 -84.07827 4000 ft 237 kts 267°
2026-05-06 00:47 33.64940 -84.09719 4005 ft 221 kts 265°
2026-05-06 00:47 33.64942 -84.11519 4019 ft 217 kts 263°
2026-05-06 00:47 33.64926 -84.13329 4011 ft 217 kts 263°
2026-05-06 00:48 33.64912 -84.15145 3996 ft 219 kts 264°
2026-05-06 00:48 33.64906 -84.16972 3998 ft 219 kts 264°
2026-05-06 00:48 33.64909 -84.18805 3997 ft 219 kts 264°
2026-05-06 00:48 33.64918 -84.20634 4010 ft 219 kts 264°
2026-05-06 00:49 33.64927 -84.22457 3964 ft 219 kts 265°
2026-05-06 00:49 33.64949 -84.24281 3731 ft 218 kts 264°
2026-05-06 00:49 33.64949 -84.26100 3422 ft 217 kts 263°
2026-05-06 00:49 33.64943 -84.27878 3122 ft 215 kts 264°
2026-05-06 00:50 33.64943 -84.29671 2844 ft 214 kts 264°
2026-05-06 00:50 33.64944 -84.31460 2574 ft 211 kts 264°
2026-05-06 00:50 33.64948 -84.33147 2309 ft 194 kts 263°
2026-05-06 00:50 33.64950 -84.34697 2061 ft 178 kts 263°
2026-05-06 00:51 33.64952 -84.36122 1841 ft 161 kts 264°
2026-05-06 00:51 33.64952 -84.37396 1637 ft 146 kts 264°
2026-05-06 00:51 33.64952 -84.38580 1432 ft 140 kts 265°
2026-05-06 00:51 33.64952 -84.39750 1234 ft 141 kts 265°
2026-05-06 00:52 33.64951 -84.40941 1056 ft 143 kts 265°
2026-05-06 00:52 33.64940 -84.42045 1011 ft 109 kts 271°
2026-05-06 00:52 33.64953 -84.42722 1011 ft 43 kts 269°
2026-05-06 00:52 33.64951 -84.42908 1009 ft 23 kts 270°
2026-05-06 00:53 33.64938 -84.43112 1010 ft 24 kts 256°
2026-05-06 00:53 33.64900 -84.43231 1010 ft 23 kts 243°
2026-05-06 00:53 33.64847 -84.43426 1010 ft 21 kts 265°
2026-05-06 00:53 33.64821 -84.43526 1010 ft 9 kts 218°
2026-05-06 00:54 33.64756 -84.43573 1010 ft 14 kts 210°
2026-05-06 00:54 33.64650 -84.43649 1010 ft 21 kts 210°
2026-05-06 00:54 33.64569 -84.43656 1010 ft 8 kts 145°
2026-05-06 00:54 33.64549 -84.43602 1010 ft 10 kts 102°
2026-05-06 00:55 33.64542 -84.43484 1010 ft 16 kts 93°
2026-05-06 00:55 33.64541 -84.43338 1011 ft 19 kts 89°
2026-05-06 00:55 33.64541 -84.43173 1011 ft 21 kts 90°
2026-05-06 00:55 33.64541 -84.42990 1010 ft 23 kts 90°
2026-05-06 00:56 33.64540 -84.42829 1010 ft 10 kts 101°
2026-05-06 00:56 33.64488 -84.42782 1010 ft 7 kts 166°
2026-05-06 00:56 33.64437 -84.42777 1010 ft 5 kts 171°
2026-05-06 00:56 33.64423 -84.42760 1010 ft 3 kts 130°
2026-05-06 00:57 33.64409 -84.42731 1010 ft 5 kts 112°
2026-05-06 00:57 33.64404 -84.42702 1010 ft 2 kts 98°
2026-05-06 00:57 33.64402 -84.42674 1010 ft 4 kts 94°
2026-05-06 00:57 33.64402 -84.42659 1010 ft 2 kts 91°
2026-05-06 00:58 33.64402 -84.42646 1010 ft 0 kts 90°